Location: Almena City Lake
(39.8850°N, 99.6804°W)
Time: 17:12:38
(UTC+00:00)

Cosmos 2369 Rocket - Pass Details

Date: 18 February 2020
Orbit: 827 x 854 km, 71.0° (Epoch: 06 April)

Event Time Altitude Azimuth Distance (km) Brightness Sun altitude
Exits shadow 11:22:25 - 341° (NNW) 3,389 5.2 -24.7°
Reaches altitude 10° 11:24:52 10° 347° (NNW) 2,491 4.5 -24.3°
Maximum altitude 11:30:26 51° 63° (ENE) 1,068 3.0 -23.2°
Drops below altitude 10° 11:35:57 10° 138° (SE) 2,475 5.1 -22.2°
Sets 11:38:28 0° 144° (SE) 3,405 5.8 -21.7°
